Temp
10 11 10 10 11 11 11 12 11 12 12 11 12 13 13 13 14 13 13 13 14 14 15 16 16 16 16 14 14 13 12 13 16 16 17 16 17 17 17 17 17 17 17 18 19
10 10 10 10 11 11 11 11 12 12 12 12 12 13 13 14 14 12 13 14 14 14 15 14 14 15 13 14 13 12 12 14 16 16 16 16 15 16 16 16 16 16 16 18 18
9 9 11 11 12 11 11 11 11 11 12 12 12 13 13 14 12 12 13 13 14 15 15 15 15 15 14 14 14 13 13 15 16 15 15 15 15 15 15 15 14 16 16 16 17
10 10 11 11 12 11 12 12 11 12 13 13 13 13 13 13 11 13 13 13 14 15 15 15 13 13 13 13 14 13 14 14 14 15 14 14 15 14 14 14 15 14 15 15 14
11 12 12 12 12 13 13 13 13 13 14 14 13 13 14 11 12 13 14 14 14 15 14 13 12 12 12 12 13 14 14 14 14 13 13 14 13 13 13 13 13 13 14 13 13
11 11 11 12 13 13 14 14 14 14 14 13 14 14 13 10 13 14 14 14 14 14 14 13 13 13 12 13 13 13 13 13 13 14 14 14 13 13 13 14 14 14 13 13 13
12 12 12 12 12 12 13 13 13 13 14 14 14 14 12 11 13 14 14 14 14 14 13 14 13 13 12 12 12 13 12 12 13 14 14 13 12 12 13 14 13 14 14 14 14
12 13 13 13 13 14 14 14 14 14 14 14 14 14 12 14 14 14 14 14 14 14 14 14 14 13 12 12 12 12 11 9 12 12 14 13 11 14 14 13 13 13 13 14 14
13 13 14 14 14 14 15 15 15 15 15 15 15 13 12 14 14 14 14 14 14 14 14 14 14 12 12 11 10 9 9 10 10 13 14 14 11 13 14 13 13 13 13 13 12
14 14 14 14 15 15 15 15 15 15 15 15 14 13 13 13 14 14 14 14 14 13 12 13 9 10 9 9 7 9 9 10 9 12 14 12 12 13 13 14 12 12 11 12 11
14 14 14 14 14 16 16 15 12 11 13 12 12 12 13 14 14 15 15 14 13 12 11 11 10 10 11 10 10 10 10 9 10 12 11 11 11 12 12 11 11 10 10 10 10
14 14 14 14 14 14 15 9 9 10 12 13 13 13 14 14 13 14 14 13 12 11 11 10 9 11 12 11 11 11 10 9 10 11 12 11 11 12 12 13 13 12 9 9 10
14 14 15 14 14 14 11 10 10 10 10 13 14 14 13 13 13 13 14 12 12 11 11 9 11 12 13 12 11 10 10 9 9 10 9 9 8 10 11 12 11 10 10 9 9
14 14 14 14 13 12 11 10 10 10 6 12 14 14 14 13 13 14 14 13 12 11 11 10 12 13 12 11 11 10 11 11 10 10 8 10 8 8 10 11 10 9 9 9 9
13 14 14 13 12 11 11 10 10 10 10 13 13 15 14 13 13 14 13 12 12 12 10 11 12 12 11 12 11 10 11 10 10 10 9 9 6 8 11 12 10 9 9 9 9
13 13 13 13 12 11 11 10 10 8 11 13 13 13 13 13 13 14 13 13 12 11 10 9 10 12 11 12 12 11 11 9 8 8 9 9 8 9 10 12 11 11 10 10 11
13 13 13 12 11 11 11 10 8 10 12 14 13 13 12 12 13 13 13 11 10 9 8 8 10 11 12 11 11 10 9 6 7 5 8 10 9 9 11 11 12 11 10 10 10
13 12 12 11 11 11 11 9 11 14 13 13 13 12 13 13 13 13 12 10 10 9 5 6 9 12 12 12 11 10 10 5 7 7 7 9 10 11 12 10 12 11 11 11 11
13 12 11 11 11 11 8 7 12 12 13 12 12 13 13 13 13 12 12 10 10 10 11 7 9 10 11 12 11 11 8 11 7 7 8 8 9 11 12 12 12 11 11 10 10
11 11 11 11 11 11 7 11 12 12 13 12 13 13 13 12 13 12 12 11 11 10 9 9 7 9 10 12 11 11 10 7 5 7 8 8 8 8 12 11 11 10 10 10 9
11 9 11 11 11 8 7 9 12 13 13 12 12 12 12 12 12 12 12 12 11 9 9 8 7 9 9 9 9 9 9 8 6 8 6 6 9 8 11 11 10 10 9 9 9
9 10 11 11 9 5 7 11 13 12 12 12 11 11 11 12 11 11 11 11 9 9 9 8 6 5 8 10 9 9 9 8 7 6 5 5 7 10 10 10 9 10 10 9 9
6 6 10 11 9 9 10 12 12 12 12 11 11 10 11 11 11 10 11 11 9 9 8 8 5 4 10 9 9 9 9 8 4 4 6 6 8 10 8 10 9 9 9 8 8
7 9 8 6 6 11 12 12 13 11 12 11 11 12 11 11 10 10 11 11 9 9 10 9 5 6 8 10 9 8 8 7 7 1 4 7 9 13 11 10 9 9 8 7 7
6 8 8 9 10 10 11 11 12 13 11 11 11 10 10 11 11 9 10 10 9 10 7 7 3 5 6 7 8 8 8 8 6 8 8 9 7 11 9 9 10 8 8 7 8
8 9 7 7 8 10 10 11 11 12 12 11 10 12 9 10 12 12 11 10 10 7 7 5 5 1 6 7 7 7 7 7 8 9 8 9 10 12 12 10 8 8 8 7 7
9 8 9 10 10 10 10 12 12 13 13 13 11 11 10 10 10 10 10 10 9 6 6 5 3 3 6 7 6 8 8 8 8 7 8 7 10 10 9 10 9 9 8 8 8
Height
779 778 780 780 781 779 779 782 784 792 794 796 797 799 801 802 803 803 805 811 810 808 805 803 801 801 801 806 807 810 824 826 813 810 806 801 801 797 796 797 796 793 793 792 793
785 785 786 781 780 785 788 791 793 795 797 798 800 802 804 804 804 807 814 812 811 809 807 806 805 804 808 810 812 816 826 816 808 807 807 803 804 802 800 799 796 795 792 791 792
790 786 788 788 786 787 791 796 798 800 802 803 805 806 806 805 806 816 815 814 812 811 810 809 807 807 812 812 814 817 821 813 809 807 806 806 805 802 802 803 797 795 793 792 792
797 796 795 797 797 797 798 800 803 804 806 807 808 808 807 805 824 818 817 816 814 813 811 811 810 815 818 819 814 818 813 812 810 808 807 807 805 805 801 798 792 792 791 790 790
802 803 802 801 802 801 802 804 806 808 809 809 809 808 807 813 821 819 818 817 816 815 813 815 818 821 822 822 817 817 813 809 807 808 807 805 805 805 799 792 790 790 789 788 787
813 812 810 809 807 806 807 808 809 811 811 810 809 808 810 821 820 819 819 819 818 816 816 818 821 820 821 820 820 817 815 812 807 803 801 802 800 802 793 789 788 788 787 785 784
819 817 816 815 815 814 814 813 813 813 813 812 812 813 814 824 821 821 821 819 819 818 818 820 820 821 821 822 819 816 818 813 806 802 800 798 801 798 788 789 788 785 783 782 782
824 822 820 819 818 817 816 817 816 815 815 814 815 814 823 823 822 821 821 821 821 820 820 821 821 820 819 819 820 821 824 832 808 804 796 800 802 790 783 787 787 784 782 781 780
828 826 824 823 822 821 820 819 818 818 818 816 815 814 825 823 823 822 822 821 820 821 821 821 820 821 820 825 834 834 835 826 821 802 799 799 802 788 782 785 785 782 781 780 779
831 829 827 825 824 823 821 820 820 818 817 816 816 821 826 828 825 823 823 824 824 822 822 821 826 830 832 836 856 838 834 825 824 806 799 799 794 784 784 781 781 779 779 778 777
833 832 830 828 826 823 820 819 823 824 821 829 829 829 829 828 827 825 825 824 824 826 829 827 832 831 827 827 825 826 828 830 818 803 804 797 793 778 779 780 779 777 777 776 775
835 834 832 830 828 826 823 827 833 835 833 828 828 828 828 827 829 826 826 828 828 832 829 835 835 824 821 821 820 820 824 826 813 803 800 796 786 775 772 768 764 765 772 772 771
836 834 832 830 828 828 829 832 833 833 835 831 828 828 828 829 829 826 826 827 828 828 827 836 823 819 817 818 820 819 821 820 818 807 803 801 792 775 763 759 759 760 762 765 766
837 834 832 831 832 830 831 833 833 833 859 839 831 829 828 827 829 823 824 827 828 829 829 831 818 816 817 820 817 821 808 808 809 808 820 801 808 784 767 760 759 762 763 764 764
835 833 831 830 831 832 835 833 833 834 870 835 832 826 826 829 827 824 823 824 827 827 835 823 818 817 818 814 814 816 806 809 806 804 814 806 825 784 763 756 759 761 760 760 758
834 831 830 830 831 832 832 832 834 855 861 836 829 828 827 825 824 821 823 823 824 827 830 829 821 818 816 810 810 808 808 809 813 815 811 798 807 784 771 756 755 756 756 755 752
833 830 829 830 832 831 831 833 853 855 839 831 833 829 831 829 825 824 825 831 835 842 843 836 821 814 812 814 812 814 821 844 833 849 820 795 802 779 757 753 751 752 752 751 750
833 831 830 831 830 830 830 839 850 834 836 833 831 830 829 826 825 825 828 836 834 839 859 856 837 811 809 811 815 817 820 857 851 837 828 798 788 766 749 750 745 746 747 748 747
832 831 832 832 831 830 836 863 847 841 836 837 834 831 831 826 830 831 828 835 834 836 834 853 832 815 809 806 813 815 834 817 836 833 822 800 783 758 747 745 744 745 745 746 745
833 832 833 833 831 831 845 846 840 836 834 836 836 833 833 832 831 831 831 828 830 835 836 839 851 820 813 808 810 810 816 838 848 845 822 805 797 783 748 747 748 747 746 744 743
834 836 835 834 832 836 859 853 838 834 835 838 837 837 835 835 833 832 828 826 829 834 837 841 850 827 819 816 814 818 822 824 842 833 850 840 790 763 746 743 745 743 742 740 740
838 843 837 835 842 854 856 840 835 834 835 837 838 839 837 834 835 834 833 825 828 832 838 839 851 856 821 811 815 813 813 819 836 842 846 845 802 747 748 747 744 739 737 736 735
848 846 838 836 854 849 843 837 834 834 836 837 838 840 839 836 836 835 828 825 829 832 837 838 857 870 811 819 814 814 814 818 836 840 833 840 791 748 751 744 741 743 737 734 732
849 851 843 842 849 843 840 837 833 832 833 834 833 833 838 837 839 835 830 827 832 832 830 833 853 849 834 812 815 818 813 817 820 864 834 796 766 733 742 745 741 737 735 734 730
852 855 855 853 845 844 843 841 837 832 835 835 832 833 835 837 833 839 833 829 833 831 838 842 862 844 830 821 813 807 805 806 818 803 804 769 780 738 743 743 735 735 731 729 725
854 854 855 855 850 846 843 839 836 831 832 830 834 825 834 833 822 821 824 826 826 836 838 845 849 860 824 809 812 802 793 793 790 788 789 772 759 732 726 731 732 729 727 724 718
852 852 852 846 846 847 844 833 829 828 821 822 826 826 829 823 817 816 817 817 818 829 837 842 851 854 827 810 805 790 768 772 773 773 770 779 740 732 731 730 727 722 720 717 711
Wind_Speed
19 19 17 13 12 14 22 20 6 20 18 16 15 17 17 19 20 22 18 8 10 14 12 7 10 11 7 3 3 3 3 2 3 1 3 2 1 2 2 2 2 2 4 2 3
20 19 19 16 25 25 23 19 22 20 19 20 19 24 23 20 26 23 11 11 12 15 13 12 7 9 4 3 3 4 3 5 1 2 3 2 2 2 2 3 3 3 5 5 2
24 22 28 27 34 33 28 25 22 21 20 21 20 12 6 3 5 7 12 11 13 14 10 7 5 3 4 3 3 1 2 3 2 3 4 3 5 2 1 5 7 4 4 4 5
26 24 27 28 26 25 27 22 20 19 17 13 9 6 10 4 5 5 10 12 15 13 15 13 6 4 4 4 3 3 2 2 4 4 4 5 4 6 4 8 4 6 6 4 9
27 28 20 20 22 22 22 20 18 15 12 9 6 5 5 7 4 6 9 11 11 12 17 5 7 3 2 3 4 2 4 4 5 7 6 5 7 6 7 12 8 9 9 10 8
26 24 21 20 20 20 20 20 19 16 15 12 8 8 5 7 4 6 7 8 10 12 14 10 2 2 0 2 1 4 5 8 7 8 6 7 8 4 7 5 9 8 10 10 10
22 21 20 18 16 15 14 15 13 11 11 10 6 8 11 4 4 6 4 7 8 9 4 4 3 3 1 5 4 5 6 7 6 4 5 5 6 8 13 4 11 12 10 9 5
21 20 19 17 15 14 12 10 10 9 9 8 5 6 4 3 3 6 7 5 6 6 4 3 3 2 2 3 6 5 4 5 6 8 5 5 7 8 9 4 7 8 8 3 5
19 18 18 14 10 8 9 11 10 5 5 7 5 5 2 3 3 7 7 6 10 4 6 5 1 2 3 3 4 5 3 6 7 5 6 3 9 8 4 5 8 8 7 6 7
16 16 18 18 11 3 3 7 7 6 4 4 7 5 5 4 6 8 6 4 2 7 5 4 4 2 3 4 2 6 6 5 8 5 8 10 17 17 12 12 11 10 7 7 7
12 11 12 16 19 20 6 2 7 6 11 4 2 3 2 5 4 4 5 6 3 4 2 4 3 2 5 5 6 5 5 8 7 12 5 12 13 19 10 8 9 9 8 8 8
12 9 6 11 11 14 19 7 2 1 2 1 0 1 1 2 2 4 1 2 2 2 3 4 3 5 5 6 5 5 6 8 9 5 5 11 18 18 12 13 14 13 8 9 5
14 10 8 12 6 8 16 6 2 1 3 3 2 2 3 3 3 3 2 1 0 2 2 3 5 5 2 4 5 4 5 5 7 6 6 7 9 7 6 8 6 7 7 7 9
16 13 10 10 1 4 4 5 1 2 4 5 2 2 1 1 3 2 2 2 2 2 4 5 4 2 3 5 4 5 4 5 6 8 4 5 6 6 6 6 3 4 6 7 8
20 15 8 5 2 2 2 4 1 1 5 3 4 2 1 1 4 1 1 2 2 3 5 5 2 3 4 5 5 8 3 6 4 6 4 2 2 7 4 4 4 7 8 8 8
20 15 5 2 3 2 6 2 3 5 3 4 2 3 3 1 2 1 1 1 1 1 1 7 4 3 4 3 3 8 5 3 2 1 3 3 3 6 3 4 3 5 8 8 7
19 11 3 2 3 7 2 3 5 6 1 3 2 3 2 3 3 0 3 4 2 5 5 6 2 3 2 4 4 6 5 4 5 4 5 2 1 9 6 6 7 9 9 8 6
19 7 3 3 5 4 1 4 7 2 3 3 3 3 1 2 2 2 2 2 1 3 2 4 7 3 2 3 2 3 1 3 4 3 5 2 5 5 4 7 6 7 6 6 6
14 4 3 5 5 3 4 5 5 4 2 5 4 3 3 1 1 4 1 2 4 4 1 2 6 4 4 3 5 3 2 2 2 1 4 4 7 9 4 2 3 6 5 7 7
8 3 3 7 4 3 5 2 2 3 1 2 2 1 3 3 3 3 2 2 2 4 2 1 6 3 4 1 1 4 1 3 2 4 5 5 6 5 5 7 6 7 8 8 7
5 3 4 6 4 4 3 4 3 1 1 3 2 3 3 3 2 2 3 2 4 3 2 4 3 5 2 5 6 3 2 2 3 3 2 4 7 6 7 7 10 11 9 8 8
4 3 7 7 3 2 1 2 2 2 1 2 2 4 4 1 3 3 4 5 7 6 4 4 3 5 9 1 2 2 5 5 4 4 2 2 7 4 7 8 8 9 9 7 7
2 2 5 4 2 2 4 3 2 3 3 3 3 4 2 3 3 5 3 2 5 5 5 5 1 5 8 4 3 4 4 3 4 2 6 4 7 3 7 6 7 9 9 8 7
2 3 3 4 1 1 3 4 3 3 3 4 3 2 1 3 4 4 3 1 4 2 3 2 3 7 6 7 2 4 5 5 5 3 4 10 13 17 10 10 9 9 9 9 9
3 1 2 4 2 1 1 3 3 3 3 3 2 6 7 3 3 5 4 3 2 2 2 2 4 4 11 18 19 21 18 11 12 11 8 2 9 19 12 12 14 11 9 9 12
1 2 1 3 3 2 3 4 5 4 5 4 5 4 8 7 9 7 5 5 7 2 6 2 4 2 9 6 7 12 16 18 20 19 17 23 28 27 24 13 12 13 11 11 10
1 1 2 3 2 1 4 4 3 1 5 3 8 2 5 14 13 10 7 6 7 9 8 6 2 3 6 7 12 7 7 15 6 5 13 12 15 5 9 8 7 9 9 12 11
Wind_Direction
69 82 72 69 84 110 130 161 130 117 115 114 111 108 96 91 89 71 47 40 23 4 18 44 43 29 56 58 52 119 56 301 294 310 294 329 222 338 310 269 301 244 165 173 266
58 73 73 70 74 98 122 133 109 113 112 111 111 112 107 93 72 54 33 27 18 5 13 15 5 6 38 30 17 74 130 224 240 255 263 319 356 326 336 326 272 274 281 270 246
67 63 81 75 88 79 84 100 99 104 109 112 119 111 71 27 67 357 11 20 13 17 11 17 25 55 56 34 12 101 207 325 320 321 345 315 309 317 291 255 238 247 245 292 279
77 82 87 67 69 71 81 83 95 103 102 97 88 67 47 43 87 321 1 8 18 34 40 35 18 33 47 359 351 356 278 264 302 1 333 302 296 300 239 237 242 247 263 277 285
76 101 93 70 73 76 80 84 90 93 88 79 63 51 49 51 67 31 13 21 30 41 42 43 42 18 39 320 332 237 298 302 284 290 260 268 257 243 268 268 271 269 279 276 270
73 76 78 74 70 77 89 94 93 90 81 69 65 80 80 79 14 34 11 27 35 47 46 44 65 271 184 295 313 308 273 283 280 268 251 240 250 176 257 267 279 269 266 262 252
66 64 64 64 63 75 82 87 81 65 63 55 34 75 60 126 32 12 15 21 28 30 42 23 34 51 19 331 338 288 307 316 277 314 273 196 265 235 246 258 269 272 265 273 274
64 59 52 48 53 66 71 59 36 24 29 24 49 73 90 37 30 27 21 37 357 345 335 306 328 141 137 313 349 348 34 352 302 320 285 160 277 274 272 216 263 278 269 265 217
53 54 51 50 57 64 69 49 31 42 49 39 41 81 57 352 27 357 356 359 340 354 299 265 16 68 15 34 355 5 287 288 302 291 275 217 305 277 278 252 276 280 279 270 241
45 45 42 44 36 22 333 334 30 54 22 54 47 53 14 349 345 337 356 334 290 328 11 43 43 51 34 71 257 276 284 255 259 281 291 280 264 271 269 277 265 269 268 234 230
37 35 42 35 36 33 15 352 18 353 37 82 322 97 312 313 296 331 339 337 19 36 3 342 26 265 259 217 224 257 259 263 265 280 273 267 273 272 263 267 260 251 236 236 240
25 17 6 3 8 20 42 67 90 233 16 7 33 339 267 12 334 275 272 24 14 284 302 10 244 244 249 251 246 268 273 278 285 278 282 279 274 275 253 251 240 238 220 222 236
8 359 345 338 340 14 64 80 76 87 93 320 247 249 236 178 246 266 132 165 143 319 353 184 254 321 261 291 283 262 230 258 263 302 262 289 280 270 280 258 253 209 192 193 219
356 342 334 348 34 17 67 44 41 144 76 310 1 304 226 244 272 230 187 132 22 301 317 239 270 259 272 276 211 280 210 248 283 320 298 59 292 288 285 294 270 190 177 209 230
347 343 323 357 9 43 43 354 129 110 50 264 295 250 304 224 295 348 170 81 228 256 79 262 258 270 278 233 182 246 239 258 265 277 325 297 94 269 327 297 232 205 212 228 231
346 343 325 338 11 36 321 315 131 42 283 347 273 335 356 227 256 274 182 29 196 242 239 246 306 261 230 283 223 289 297 333 52 124 269 242 159 285 237 222 199 225 228 226 237
348 344 348 11 9 339 5 91 34 90 284 308 316 349 345 287 307 233 350 5 45 26 1 321 252 274 226 315 337 9 12 339 359 6 234 356 189 247 266 249 205 210 226 232 241
349 6 38 47 348 349 68 54 68 255 262 328 319 308 262 358 270 320 332 343 69 72 14 49 329 194 158 204 272 315 19 137 283 302 287 302 232 256 259 276 212 201 219 222 245
351 11 64 16 4 11 68 51 197 199 316 333 320 328 321 340 302 10 246 225 207 177 16 8 270 302 217 191 124 329 357 312 251 271 286 265 288 303 325 358 198 215 225 238 256
356 19 29 351 2 24 70 224 223 220 131 66 317 39 312 305 355 10 284 210 203 192 120 250 299 230 293 91 111 166 186 21 10 319 296 292 285 241 263 241 252 258 245 248 251
6 40 1 351 339 49 107 239 279 262 154 167 258 292 274 304 290 270 245 249 174 172 153 153 139 290 310 202 186 138 197 135 138 187 228 309 273 221 235 222 218 239 240 243 248
8 16 350 351 41 51 90 214 309 237 143 259 221 216 221 262 274 274 247 224 167 148 175 209 176 274 237 271 350 260 200 157 131 252 198 173 274 262 256 277 234 246 242 245 237
18 279 358 9 75 335 295 277 245 206 227 184 262 221 177 254 280 214 266 356 151 152 171 173 281 325 339 8 24 243 216 140 99 60 209 152 258 309 304 281 257 261 267 266 257
35 359 332 49 89 106 343 271 271 206 243 192 224 161 184 263 218 292 285 346 189 203 150 160 181 197 217 234 213 229 208 194 155 146 207 228 278 266 279 272 276 264 258 272 270
42 330 179 305 349 255 345 295 289 269 214 217 259 213 177 254 266 227 224 286 148 214 88 119 241 241 251 263 266 265 257 223 209 212 211 276 229 273 272 271 272 262 267 265 272
19 12 343 272 301 284 191 235 220 279 182 228 226 202 192 209 207 250 201 189 230 108 161 172 265 351 293 259 258 264 243 231 235 239 252 262 277 275 279 280 273 265 266 265 257
229 167 125 280 261 242 232 252 292 308 240 238 218 214 238 236 234 240 219 213 205 168 186 173 172 17 271 330 316 294 240 198 186 197 218 226 236 265 276 272 270 268 259 255 254